Laramie, WY

4:41 AM MDT on April 29, 2017 (GMT -0600)
Laramie Regional

Weather History for KLAR - December, 2013

Change the Weather History Date:

Sunday, December 15, 2013

  Actual Average Record
Temperature  
Mean Temperature 32 °F 21 °F  
Max Temperature 42 °F 32 °F 56 °F (2006)
Min Temperature 22 °F 10 °F -21 °F (2007)
Degree Days  
Heating Degree Days 33 44  
Month to date heating degree days 780 652  
Since 1 July heating degree days 2902 2964  
Cooling Degree Days 0 0  
Month to date cooling degree days 0 0  
Year to date cooling degree days 162 67  
Moisture  
Dew Point 17 °F    
Average Humidity 56    
Maximum Humidity 68    
Minimum Humidity 44    
Precipitation  
Precipitation 0.00 in 0.01 in 0.09 in (1948)
Month to date precipitation 0.07 0.17  
Year to date precipitation 11.99 10.77  
Sea Level Pressure  
Sea Level Pressure 30.19 in    
Wind  
Wind Speed 20 mph (SW)    
Max Wind Speed 39 mph    
Max Gust Speed 46 mph    
Visibility 10 miles    
Events      
T = Trace of Precipitation, MM = Missing Value Source: NWS Daily Summary

Daily Weather History Graph

Daily Weather History Graph

Search for Another Location

Airport or City:

Trip Planner

Search our weather history database for the weather conditions in past years. The results will help you decide how hot, cold, wet, or windy it might be!

Date:

Astronomy

Dec. 15, 2013 Rise Set
Actual Time 7:21 AM MST 4:34 PM MST
Civil Twilight 6:50 AM MST 5:05 PM MST
Nautical Twilight 6:15 AM MST 5:40 PM MST
Astronomical Twilight 5:41 AM MST 6:14 PM MST
Moon 3:41 PM MST (12/15) 5:39 AM MST (12/15)
Length of Visible Light 10h 15m
Length of Day
9h 12m
Waxing Gibbous, 98% of the Moon is Illuminated
Dec 15
Waxing Gibbous
Dec 17
Full
Dec 25
Last Quarter
Jan 1
New
Jan 7
First Quarter

Hourly Weather History & Observations

Time (MST) Temp. Windchill Dew Point Humidity Pressure Visibility Wind Dir Wind Speed Gust Speed Precip Events Conditions
12:53 AM 24.1 °F 10.6 °F 14.0 °F 65% 30.25 in 10.0 mi WSW 17.3 mph - N/A   Clear
1:53 AM 24.1 °F 8.0 °F 14.0 °F 65% 30.25 in 10.0 mi West 25.3 mph 31.1 mph N/A   Clear
2:53 AM 24.1 °F 10.6 °F 15.1 °F 69% 30.22 in 10.0 mi WSW 17.3 mph - N/A   Clear
3:53 AM 26.1 °F 11.0 °F 16.0 °F 66% 30.24 in 10.0 mi West 24.2 mph 28.8 mph N/A   Partly Cloudy
4:53 AM 26.1 °F 11.6 °F 16.0 °F 66% 30.26 in 10.0 mi SW 21.9 mph 26.5 mph N/A   Clear
5:53 AM 24.1 °F 10.1 °F 16.0 °F 71% 30.24 in 10.0 mi WSW 18.4 mph 23.0 mph N/A   Clear
6:53 AM 26.1 °F 13.6 °F 16.0 °F 66% 30.25 in 10.0 mi SW 16.1 mph - N/A   Clear
7:53 AM 27.0 °F 12.2 °F 17.1 °F 66% 30.23 in 10.0 mi WSW 24.2 mph - N/A   Clear
8:53 AM 28.0 °F 13.6 °F 18.0 °F 66% 30.24 in 10.0 mi SW 24.2 mph 33.4 mph N/A   Clear
9:53 AM 32.0 °F 18.9 °F 19.0 °F 59% 30.22 in 10.0 mi SW 24.2 mph 32.2 mph N/A   Clear
10:53 AM 36.0 °F 25.0 °F 19.9 °F 52% 30.20 in 10.0 mi WSW 20.7 mph - N/A   Clear
11:53 AM 37.0 °F 25.6 °F 21.0 °F 52% 30.17 in 10.0 mi SW 24.2 mph 32.2 mph N/A   Clear
12:53 PM 37.9 °F 29.6 °F 21.0 °F 51% 30.17 in 10.0 mi WSW 13.8 mph - N/A   Clear
1:53 PM 39.0 °F 28.5 °F 19.9 °F 46% 30.14 in 10.0 mi SW 23.0 mph 27.6 mph N/A   Clear
2:53 PM 39.9 °F 31.1 °F 19.0 °F 43% 30.13 in 10.0 mi West 17.3 mph 24.2 mph N/A   Clear
3:11 PM 39.2 °F 27.6 °F 21.2 °F 49% 30.12 in 10.0 mi West 28.8 mph - N/A   Clear
3:53 PM 36.0 °F 27.5 °F 19.9 °F 52% 30.16 in 10.0 mi SW 12.7 mph - N/A   Clear
4:53 PM 36.0 °F 26.0 °F 17.1 °F 46% 30.15 in 10.0 mi WSW 17.3 mph - N/A   Clear
5:53 PM 34.0 °F 21.8 °F 18.0 °F 52% 30.18 in 10.0 mi SSW 23.0 mph 32.2 mph N/A   Clear
6:53 PM 35.1 °F 28.6 °F 17.1 °F 48% 30.20 in 10.0 mi SSW 8.1 mph - N/A   Clear
7:53 PM 35.1 °F 25.9 °F 16.0 °F 46% 30.19 in 10.0 mi SE 13.8 mph 19.6 mph N/A   Clear
8:53 PM 36.0 °F 23.5 °F 17.1 °F 46% 30.14 in 10.0 mi WSW 27.6 mph 38.0 mph N/A   Clear
9:53 PM 32.0 °F 20.5 °F 17.1 °F 54% 30.16 in 10.0 mi SSE 18.4 mph - N/A   Scattered Clouds
10:53 PM 30.0 °F 25.2 °F 15.1 °F 54% 30.14 in 10.0 mi ENE 4.6 mph - N/A   Clear
11:25 PM 32.0 °F 17.4 °F 15.8 °F 51% 30.13 in 10.0 mi West 31.1 mph 39.1 mph N/A   Clear
11:53 PM 32.0 °F 17.2 °F 16.0 °F 52% 30.10 in 10.0 mi West 32.2 mph 39.1 mph N/A   Clear